1285687290054,31.8400
1285687350054,31.8751
1285687410054,31.9668
1285687470054,31.8762
1285687530054,31.8938
1285687590054,31.8848
1285687650054,31.8351
1285687710054,31.8914
1285687770054,31.8266
1285687830054,31.9011
1285687890054,31.7764
1285687950054,31.8928
1285688010054,31.8600
1285688070054,31.8670
1285688130054,31.8399
1285688190054,31.8817
1285688250054,31.8115
1285688310054,31.8758
1285688370054,31.7936
1285688430054,31.8317
1285688490054,31.8562
1285688550054,31.8204
1285688610054,31.8426
1285688670054,31.8263
1285688730054,31.8630
1285688790054,31.7647
1285688850054,31.8149
1285688910054,31.7946
1285688970054,31.8252
1285689030054,31.9475
1285689090054,31.8759
1285689150054,31.7898
1285689210054,31.8806
1285689270054,31.8089
1285689330054,31.8621
1285689390054,31.8766
1285689450054,31.8159
1285689510054,31.7713
1285689570054,31.8677
1285689630062,31.8347
1285689690062,31.9081
1285689750062,31.9212
1285689810062,31.9279
1285689870062,31.8089
1285689930062,32.0151
1285689990062,31.9372
1285690050062,31.8947
1285690110062,31.8863
1285690170062,31.8490
1285690230062,31.8797
1285690290062,31.8447
1285690350062,31.9205
1285690410062,31.8280
1285690470062,31.8951
1285690530062,31.9161
1285690590062,31.8809
1285690650062,31.8771
1285690710062,31.8668
1285690770062,31.8658
1285690830062,31.7958
1285690890062,31.8782
1285690950062,31.8055
1285691010062,31.7349
1285691070062,31.9132
1285691130062,31.8675
1285691190062,31.9521
1285691250062,31.8401
1285691310062,31.7949
1285691370062,31.8065
1285691430062,31.7675
1285691490062,31.8169
1285691550062,31.8767
1285691610062,31.8729
1285691670062,31.8271
1285691730062,31.9193
1285691790062,31.8755
1285691850062,31.9001
1285691910062,31.7795
1285691970062,31.7981
1285692030062,31.9465
1285692090062,31.8245
1285692150062,31.7383
1285692210062,31.9150
1285692270062,31.8121
1285692330062,31.7404
1285692390062,31.9109
1285692450062,31.7950
1285692510062,31.9603
1285692570062,31.8238
1285692630062,31.8723
1285692690062,31.8164
1285692750062,31.7719
1285692810062,31.8919
1285692870062,31.8324
1285692930062,31.9040
1285692990062,31.7737
1285693050062,31.7416
1285693110062,31.8393
1285693170062,31.7878
1285693230075,31.7699
1285693290075,31.9110
1285693350075,31.8382
1285693410075,31.8452
1285693470075,31.8621
1285693530075,31.8631
1285693590075,31.8177
1285693650075,31.8235
1285693710075,31.8801
1285693770075,31.9226
1285693830075,31.8400
1285693890075,31.9110
1285693950075,31.8871
1285694010075,31.8397
1285694070075,31.8581
1285694130075,31.9045
1285694190075,31.9416
1285694250075,32.0108
1285694310075,31.8357
1285694370075,31.8920
1285694430075,31.9113
1285694490075,31.9807
1285694550075,31.8879
1285694610075,31.9624
1285694670075,31.9477
1285694730075,31.9051
1285694790075,31.8962
1285694850075,31.8545
1285694910075,31.8575
1285694970075,31.8998
1285695030075,31.8408
1285695090075,31.9114
1285695150075,31.9511
1285695210075,32.0212
1285695270075,31.8202
1285695330075,31.9773
1285695390075,31.8375
1285695450075,31.9849
1285695510075,31.9025
1285695570075,31.9230
1285695630075,31.8690
1285695690075,31.8729
1285695750075,31.8670
1285695810075,31.8392
1285695870075,31.8701
1285695930075,31.8282
1285695990075,31.7851
1285696050075,31.9135
1285696110075,31.8804
1285696170075,31.8908
1285696230075,31.8720
1285696290075,31.8353
1285696350075,31.8852
1285696410075,31.8219
1285696470075,31.8927
1285696530075,31.9033
1285696590075,31.9576
1285696650075,31.9637
1285696710075,31.8761
1285696770075,31.8688
1285696830087,31.8800
1285696890087,31.8476
1285696950087,31.8413
1285697010087,31.9730
1285697070087,31.8844
1285697130087,31.8544
1285697190087,31.8294
1285697250087,31.8684
1285697310087,31.7924
1285697370087,31.8046
1285697430087,31.8047
1285697490087,31.7410
1285697550087,31.8687
1285697610087,31.8519
1285697670087,31.8079
1285697730087,31.7774
1285697790087,31.9393
1285697850087,31.8246
1285697910087,31.7533
1285697970087,31.8621
1285698030087,31.7967
1285698090087,31.7315
1285698150087,31.8026
1285698210087,31.8294
1285698270087,31.8299
1285698330087,31.8630
1285698390087,31.8235
1285698450087,31.8426
1285698510087,31.8032
1285698570087,31.8661
1285698630087,31.8682
1285698690087,31.7627
1285698750087,31.8504
1285698810087,31.9167
1285698870087,31.8022
1285698930087,31.9106
1285698990087,31.9094
1285699050087,31.8230
1285699110087,31.8777
1285699170087,31.7924
1285699230087,31.8947
1285699290087,31.8383
1285699350087,31.8853
1285699410087,31.8326
1285699470087,31.8566
1285699530087,31.8083
1285699590087,31.9399
1285699650087,31.9354
1285699710087,31.9861
1285699770087,31.8162
1285699830087,31.9097
1285699890087,31.9037
1285699950087,31.9057
1285700010087,31.8676
1285700070087,31.9012
1285700130087,31.9559
1285700190087,31.9167
1285700250087,31.8001
1285700310087,31.8923
1285700370087,31.8201
1285700430100,31.8491
1285700490100,31.8311
1285700550100,31.8495
1285700610100,31.8886
1285700670100,31.7757
1285700730100,31.7152
1285700790100,31.8643
1285700850100,31.8015
1285700910100,31.7842
1285700970100,31.8668
1285701030100,31.9150
1285701090100,31.6573
1285701150100,31.8678
1285701210100,31.8106
1285701270100,31.7904
1285701330100,31.8087
1285701390100,31.7767
1285701450100,31.7588
1285701510100,31.8939
1285701570100,31.7559
1285701630100,31.8501
1285701690100,31.8397
1285701750100,31.8422
1285701810100,31.8303
1285701870100,31.8099
1285701930100,31.7095
1285701990100,31.7486
1285702050100,31.7905
1285702110100,31.6658
1285702170100,31.8728
1285702230100,31.7137
1285702290100,31.7896
1285702350100,31.5671
1285702410100,31.7685
1285702470100,31.8045
1285702530100,31.7699
1285702590100,31.7888
1285702650100,31.7683
1285702710100,31.8175
1285702770100,31.7461
1285702830100,31.8432
1285702890100,31.7951
1285702950100,31.7124
1285703010100,31.6793
1285703070100,31.7978
1285703130100,31.7775
1285703190100,31.7741
1285703250100,31.6164
1285703310100,31.6677
1285703370100,31.7632
1285703430100,31.6375
1285703490100,31.8414
1285703550100,31.7658
1285703610100,31.7142
1285703670100,31.6567
1285703730100,31.7271
1285703790100,31.7413
1285703850100,31.6632
1285703910100,31.7266
1285703970100,31.6874
1285704030112,31.6403
1285704090112,31.6442
1285704150112,31.7085
1285704210112,31.6946
1285704270112,31.6082
1285704330112,31.6537
1285704390112,31.6849
1285704450112,31.6591
1285704510112,31.6158
1285704570112,31.6696
1285704630112,31.8336
1285704690112,31.6752
1285704750112,31.7336
1285704810112,31.7235
1285704870112,31.8013
1285704930112,31.7221
1285704990112,31.7536
1285705050112,31.6709
1285705110112,31.6418
1285705170112,31.7327
1285705230112,31.6787
1285705290112,31.6269
1285705350112,31.7509
1285705410112,31.6688
1285705470112,31.6376
1285705530112,31.7351
1285705590112,31.7551
1285705650112,31.6430
1285705710112,31.7092
1285705770112,31.7745
1285705830112,31.8163
1285705890112,31.7246
1285705950112,31.6962
1285706010112,31.7177
1285706070112,31.7745
1285706130112,31.8024
1285706190112,31.8325
1285706250112,31.7474
1285706310112,31.8344
1285706370112,31.8020
1285706430112,31.8137
1285706490112,31.7854
1285706550112,31.8648
1285706610112,31.7871
1285706670112,31.7249
1285706730112,31.7515
1285706790112,31.7890
1285706850112,31.8206
1285706910112,31.8493
1285706970112,31.8414
1285707030112,31.7945
1285707090112,31.8642
1285707150112,31.7873
1285707210112,31.8221
1285707270112,31.8489
1285707330112,31.8515
1285707390112,31.8615
1285707450112,31.7984
1285707510112,31.8315
1285707570112,31.8114
1285707630124,31.7756
1285707690124,31.8037
1285707750124,31.8439
1285707810124,31.9237
1285707870124,31.8802
1285707930124,31.8733
1285707990124,31.7835
1285708050124,31.8980
1285708110124,31.9081
1285708170124,31.7699
1285708230124,31.8037
1285708290124,31.9170
1285708350124,32.0865
1285708410124,32.0660
1285708470124,31.9404
1285708530124,32.0026
1285708590124,31.8560
1285708650124,31.8417
1285708710124,31.8615
1285708770124,31.9507
1285708830124,31.8912
1285708890124,31.8995
1285708950124,31.8525
1285709010124,31.8830
1285709070124,31.8671
1285709130124,31.8283
1285709190124,31.8362
1285709250124,31.8561
1285709310124,31.8658
1285709370124,31.8759
1285709430124,31.8452
1285709490124,31.8892
1285709550124,31.8730
1285709610124,31.8109
1285709670124,31.9260
1285709730124,31.8500
1285709790124,31.8959
1285709850124,31.8649
1285709910124,31.8707
1285709970124,31.8926
1285710030124,31.8914
1285710090124,31.8564
1285710150124,31.9642
1285710210124,31.9141
1285710270124,31.8388
1285710330124,31.7355
1285710390124,31.8041
1285710450124,31.8327
1285710510124,31.7831
1285710570124,31.8575
1285710630124,31.7160
1285710690124,31.8060
1285710750124,31.7804
1285710810124,31.8198
1285710870124,31.7901
1285710930124,31.8935
1285710990124,31.8599
1285711050124,31.7881
1285711110124,31.8141
1285711170124,31.8514
1285711230135,31.8460
1285711290135,31.9322
1285711350135,31.9091
1285711410135,31.8668
1285711470135,31.9157
1285711530135,31.8912
1285711590135,31.9053
1285711650135,31.9253
1285711710135,31.9909
1285711770135,32.0167
1285711830135,32.0245
1285711890135,31.9687
1285711950135,32.0206
1285712010135,31.9682
1285712070135,31.8940
1285712130135,31.9863
1285712190135,32.0456
1285712250135,31.9396
1285712310135,32.0012
1285712370135,32.0972
1285712430135,32.0515
1285712490135,32.0597
1285712550135,32.1178
1285712610135,32.1396
1285712670135,32.1989
1285712730135,32.1140
1285712790135,32.1187
1285712850135,32.0616
1285712910135,32.0871
1285712970135,32.1307
1285713030135,32.0756
1285713090135,32.1016
1285713150135,32.1369
1285713210135,32.0613
1285713270135,32.1422
1285713330135,32.2242
1285713390135,32.1223
1285713450135,32.1635
1285713510135,32.1214
1285713570135,32.1309
1285713630135,31.9872
1285713690135,32.0282
1285713750135,31.9822
1285713810135,32.1266
1285713870135,32.0873
1285713930135,32.0416
1285713990135,31.9984
1285714050135,32.0414
1285714110135,32.0688
1285714170135,32.0028
1285714230135,32.0790
1285714290135,32.0529
1285714350135,32.0888
1285714410135,32.0272
1285714470135,32.1055
1285714530135,31.9939
1285714590135,32.1116
1285714650135,32.0420
1285714710135,32.0249
1285714770135,32.0669
1285714830147,32.0648
1285714890147,32.1525
1285714950147,32.0951
1285715010147,32.0026
1285715070147,32.0329
1285715130147,32.1820
1285715190147,32.0868
1285715250147,32.1334
1285715310147,32.0063
1285715370147,32.0845
1285715430147,32.1091
1285715490147,32.1257
1285715550147,32.0434
1285715610147,32.1528
1285715670147,32.0172
1285715730147,31.9921
1285715790147,32.0048
1285715850147,31.9516
1285715910147,31.9694
1285715970147,32.0847
1285716030147,31.9814
1285716090147,32.0778
1285716150147,31.9999
1285716210147,31.9751
1285716270147,31.9792
1285716330147,32.0170
1285716390147,32.0533
1285716450147,32.0280
1285716510147,32.0642
1285716570147,31.9131
1285716630147,31.9743
1285716690147,31.8782
1285716750147,31.8708
1285716810147,31.9252
1285716870147,31.8576
1285716930147,31.9351
1285716990147,32.0015
1285717050147,31.9443
1285717110147,31.9256
1285717170147,31.9206
1285717230147,31.9875
1285717290147,31.8906
1285717350147,31.8999
1285717410147,31.8787
1285717470147,31.9822
1285717530147,31.9828
1285717590147,31.9407
1285717650147,31.9140
1285717710147,31.9495
1285717770147,31.9805
1285717830147,31.9558
1285717890147,31.9311
1285717950147,31.9035
1285718010147,31.9277
1285718070147,31.9200
1285718130147,31.9439
1285718190147,31.8318
1285718250147,31.8664
1285718310147,31.9206
1285718370147,31.8915
